Погода в Верхней Старице

Россия / Пермский край     60°13′58″N   54°39′55″E
темп.,
°C
ветер,
м/с
пор.,
м/с
влажн.,
%
обл.,
%
осадки,
мм/ч
давл.,
гПа
погр.,
м
25 января, вт
вт2523:00−9юз51585100 0.0 1026619
02:00−8зюз51682100 0.0 1024631
05:00−8зюз51682100 0.0 1023613
08:00−8зюз51582100 0.0 1022571
11:00−8юз51483100 0.0 1021537
14:00−8юз5148358 0.0 1020565
17:00−8юз5148299 0.0 1020528
20:00−9юз4149188 0.0 1020453
26 января, ср
ср2623:00−10ююз413875 0.0 1019409
02:00−12ююз3129084 0.0 1019343
05:00−13ююз31194100 0.0 1019255
08:00−13ю31092100 0.0 1019278
11:00−13ю399299 0.0 1019296
14:00−10ю3790100 0.0 1019336
17:00−10ю3895100 0.2 1019392
20:00−11ю389598 0.4 1019318
27 января, чт
чт2723:00−11ю2796100 0.7 1018234
02:00−12ю259695 0.3 1018155
05:00−14ююв249789 0.4 101896
08:00−15ююв249772 0.1 1017106
11:00−14ю1496100 0.2 1017114
14:00−11ю1392100 0.1 1016245
17:00−11ю139694 0.3 1016119
20:00−12ю269792 0.1 1016147
28 января, пт
пт2823:00−12ююз269782 0.2 1016149
02:00−13ююз279686 0.1 1017240
05:00−14ююз279687 0.1 1017209
08:00−16ю279782 0.1 1018185
11:00−14ю389581 0.1 1018269
14:00−12ю379295 0.0 1018360
17:00−13ю379584 0.1 1018205
20:00−14ю399781 0.0 1019196
29 января, сб
сб2923:00−13ю3109682 0.1 1018250
02:00−13ю3109593 0.0 1018241
05:00−12ю31195100 0.1 1018290
08:00−12ю3995100 0.1 1018246
11:00−14ююв2898100 0.1 1017177
14:00−10ююв2692100 0.0 1015219
17:00−9вюв2695100 0.0 1014245
20:00−9юв389588 0.0 1012276